Location: Mascot Post Office (historical)
(40.2645°N, 99.5462°W)
Time: 03:20:05
(UTC+00:00)

ATLAS 5 CENTAUR R/B - Pass Details

Date: 05 November 2020
Orbit: 522 x 1136 km, 63.4° (Epoch: 30 November)

Event Time Altitude Azimuth Distance (km) Brightness Sun altitude
Rises 02:31:57 0° 335° (NNW) 3,232 5.6 -34.8°
Reaches altitude 10° 02:34:42 10° 350° (N) 2,411 4.7 -35.3°
Enters shadow 02:34:49 11° 350° (N) 2,382 4.7 -35.3°
